Вернуться в каталог

COSMOS 2251 DEB

АктивенLEO
NORAD 34446·DEBRIS·🇷🇺 Russia

Запущен Jun 16, 1993 с Plesetsk Cosmodrome

Loading…

Ближайшие Пролёты (ближайшие 24 часа)

TLE

СвежийSource: Space-Track

Эпоха: Sep 14, 2026, 08:16 UTC

1 34446U 93036SP  26257.34459928  .00000267  00000-0  75794-4 0  9999
2 34446  74.0386 260.3182 0051670 326.4458  33.3432 14.49589809926871

Отслеживайте COSMOS 2251 DEB в реальном времени с AllMySat

Download on the App Store